EW5761 Weather Reports


time (UTC)temp
C
wind
direction
speed
KPH
gust
KPH
rain 1hr
cm
rain 24hr
cm
rain mn
cm
humidity
%
barometer
mb
20260509141338 20 91 0.0 0.0 0.00 0.10 0.03 72 1016.5
20260509140330 20 8 0.0 0.0 0.00 0.10 0.03 72 1016.6
20260509135330 21 113 0.0 0.0 0.00 0.10 0.03 69 1016.7
20260509134330 21 141 0.0 0.0 0.00 0.10 0.03 70 1016.9
20260509133326 21 149 0.0 0.0 0.00 0.10 0.03 70 1017.1
20260509132403 21 122 0.0 0.0 0.00 0.10 0.03 67 1017.2
20260509131341 21 101 0.0 0.0 0.00 0.10 0.03 69 1017.5
20260509130328 21 109 0.0 0.0 0.00 0.10 0.03 61 1017.5
20260509125406 21 151 0.0 0.0 0.00 0.10 0.03 67 1017.6
20260509124338 21 124 0.0 1.6 0.00 0.10 0.03 63 1017.7
20260509123336 21 71 0.0 0.0 0.00 0.10 0.03 61 1017.7
20260509122328 21 116 0.0 6.4 0.00 0.10 0.03 63 1017.8
20260509121405 21 117 0.0 0.0 0.00 0.10 0.03 61 1017.7
20260509120406 21 70 0.0 0.0 0.00 0.10 0.03 54 1017.6
20260509115341 21 122 0.0 0.0 0.00 0.10 0.03 56 1017.7
20260509114343 22 63 0.0 0.0 0.00 0.10 0.03 63 1017.8
20260509113340 21 104 0.0 0.0 0.00 0.10 0.03 65 1017.9
20260509112340 22 122 0.0 0.0 0.00 0.03 0.03 65 1018.5
20260509111341 21 134 0.0 0.0 0.00 0.10 0.03 64 1018.4
20260509110337 21 311 0.0 0.0 0.00 0.10 0.03 67 1018.3
20260509105354 21 304 0.0 1.6 0.00 0.10 0.03 67 1018.4
20260509104343 21 269 0.0 0.0 0.00 0.10 0.03 65 1018.5
20260509103345 21 117 0.0 0.0 0.10 0.10 0.03 67 1018.6
20260509102402 22 109 0.0 0.0 0.10 0.10 0.03 67 1018.7
20260509101337 22 87 0.0 0.0 0.10 0.10 0.03 68 1018.5
20260509100329 22 34 0.0 0.0 0.10 0.10 0.03 66 1018.5
20260509095343 21 331 0.0 0.0 0.10 0.10 0.03 70 1018.5
20260509094341 22 136 0.0 0.0 0.10 0.10 0.03 69 1018.5
20260509093332 22 354 0.0 0.0 0.00 0.00 0.00 71 1018.5
20260509092348 21 330 0.0 0.0 0.00 0.00 0.00 68 1018.4
20260509091406 21 121 0.0 0.0 0.00 0.00 0.00 73 1018.4
20260509090336 21 339 0.0 1.6 0.00 0.00 0.00 72 1018.4
20260509085341 21 39 0.0 0.0 0.00 0.00 0.00 68 1018.5
20260509084343 21 327 0.0 0.0 0.00 0.00 0.00 67 1018.4
20260509083338 21 150 0.0 0.0 0.00 0.00 0.00 63 1018.4
20260509082338 22 140 0.0 0.0 0.00 0.00 0.00 62 1018.4
20260509081328 21 84 0.0 3.2 0.00 0.00 0.00 63 1018.3
20260509080344 21 12 0.0 0.0 0.00 0.00 0.00 63 1018.3
20260509075401 22 334 0.0 0.0 0.00 0.00 0.00 61 1018.3
20260509074340 21 115 0.0 0.0 0.00 0.00 0.00 61 1018.3
20260509073328 21 340 0.0 0.0 0.00 0.00 0.00 60 1018.4
20260509072345 21 354 0.0 0.0 0.00 0.00 0.00 59 1018.5
20260509071344 22 101 0.0 0.0 0.00 0.00 0.00 62 1018.5
20260509070338 21 120 0.0 0.0 0.00 0.00 0.00 61 1018.5
20260509065338 21 108 0.0 0.0 0.00 0.00 0.00 60 1018.4
20260509064339 20 96 0.0 0.0 0.00 0.00 0.00 65 1018.4
20260509063327 20 88 0.0 0.0 0.00 0.00 0.00 61 1018.4
20260509062342 19 91 0.0 0.0 0.00 0.00 0.00 67 1018.4
20260509061332 17 139 0.0 0.0 0.00 0.00 0.00 71 1018.3
20260509060356 17 214 0.0 0.0 0.00 0.00 0.00 72 1018.3
20260509055339 16 220 0.0 0.0 0.00 0.00 0.00 74 1018.3
20260509054332 16 220 0.0 0.0 0.00 0.00 0.00 76 1018.4
20260509053407 15 219 0.0 0.0 0.00 0.00 0.00 80 1018.4
20260509052337 15 229 0.0 0.0 0.00 0.00 0.00 79 1018.4
20260509051344 14 229 0.0 0.0 0.00 0.00 0.00 80 1018.2
20260509050332 13 229 0.0 0.0 0.00 0.00 0.00 82 1018.1
20260509045338 13 229 0.0 0.0 0.00 0.00 0.00 83 1018.0
20260509044332 13 229 0.0 0.0 0.00 0.00 0.00 83 1017.9
20260509043329 12 229 0.0 0.0 0.00 0.00 0.00 83 1017.9
20260509042343 12 229 0.0 0.0 0.00 0.00 0.00 82 1018.0
20260509041344 12 229 0.0 0.0 0.00 0.00 0.00 81 1017.9
20260509040337 12 230 0.0 1.6 0.00 0.00 0.00 81 1017.9
20260509035358 12 228 1.6 1.6 0.00 0.00 0.00 81 1017.9
20260509034334 12 229 1.6 3.2 0.00 0.00 0.00 81 1018.0
20260509033351 12 228 1.6 3.2 0.00 0.00 0.00 81 1017.9
20260509032346 12 228 1.6 1.6 0.00 0.00 0.00 81 1017.7
20260509031404 12 227 1.6 3.2 0.00 0.00 0.00 81 1017.8
20260509030332 12 227 1.6 3.2 0.00 0.00 0.00 82 1017.9
20260509025342 12 226 1.6 3.2 0.00 0.00 0.00 81 1017.8
20260509024341 12 229 0.0 0.0 0.00 0.00 0.00 81 1017.7
20260509023400 12 229 0.0 0.0 0.00 0.00 0.00 82 1017.6
20260509022327 12 232 0.0 0.0 0.00 0.00 0.00 82 1017.6
20260509021346 12 235 0.0 0.0 0.00 0.00 0.00 82 1017.6
20260509020344 12 224 0.0 0.0 0.00 0.00 0.00 82 1017.6
20260509015343 12 231 0.0 0.0 0.00 0.00 0.00 82 1017.4
20260509014331 12 228 0.0 0.0 0.00 0.00 0.00 82 1017.4
20260509013349 12 226 0.0 0.0 0.00 0.00 0.00 82 1017.4
20260509012406 12 226 0.0 0.0 0.00 0.00 0.00 82 1017.4
20260509011345 13 229 0.0 0.0 0.00 0.00 0.00 82 1017.6
20260509010344 13 229 0.0 0.0 0.00 0.00 0.00 82 1017.6
20260509005336 13 229 0.0 0.0 0.00 0.00 0.00 81 1017.5
20260509004338 13 227 0.0 0.0 0.00 0.00 0.00 81 1017.8
20260509003353 13 227 0.0 0.0 0.00 0.00 0.00 81 1017.5
20260509002340 13 227 0.0 0.0 0.00 0.00 0.00 81 1017.6
20260509001335 13 228 0.0 0.0 0.00 0.00 0.00 81 1017.8
20260509000328 13 228 0.0 0.0 0.00 0.00 0.00 81 1017.8
20260508235342 13 227 0.0 0.0 0.00 0.00 0.00 81 1017.8
20260508234341 13 227 0.0 0.0 0.00 0.00 0.00 81 1017.9
20260508233330 13 229 0.0 0.0 0.00 0.00 0.00 81 1017.8
20260508232405 13 229 0.0 0.0 0.00 0.00 0.00 81 1017.9
20260508231345 13 229 0.0 0.0 0.00 0.00 0.00 80 1017.8
20260508230404 13 230 0.0 0.0 0.00 0.00 0.00 80 1017.9
20260508225332 13 230 0.0 0.0 0.00 0.00 0.00 80 1017.8
20260508224332 13 229 0.0 0.0 0.00 0.00 0.00 80 1017.9
20260508223329 13 229 0.0 0.0 0.00 0.00 0.00 80 1017.9
20260508222343 13 229 0.0 0.0 0.00 0.00 0.00 80 1017.9
20260508221345 13 229 0.0 0.0 0.00 0.00 0.00 81 1017.8
20260508220400 13 229 0.0 0.0 0.00 0.00 0.00 81 1017.9
20260508215339 13 229 0.0 0.0 0.00 0.00 0.00 80 1017.9
20260508214339 13 229 0.0 0.0 0.00 0.00 0.00 80 1017.8
20260508213339 13 229 0.0 0.0 0.00 0.00 0.00 79 1017.7
20260508212337 14 229 0.0 0.0 0.00 0.00 0.00 78 1017.7
20260508211354 14 229 0.0 0.0 0.00 0.00 0.00 78 1017.6
20260508210351 14 229 0.0 0.0 0.00 0.00 0.00 78 1017.4
20260508205407 14 229 0.0 0.0 0.00 0.00 0.00 79 1017.4
20260508204344 14 228 0.0 0.0 0.00 0.00 0.00 79 1017.3
20260508203335 14 225 0.0 0.0 0.00 0.00 0.00 79 1017.4
20260508202345 14 222 0.0 0.0 0.00 0.00 0.00 79 1017.5
20260508201340 15 221 0.0 0.0 0.00 0.00 0.00 80 1017.4
20260508200357 15 220 0.0 0.0 0.00 0.00 0.00 80 1017.4
20260508195355 15 220 0.0 0.0 0.00 0.00 0.00 79 1017.4
20260508194352 15 220 0.0 0.0 0.00 0.00 0.00 79 1017.2
20260508193352 15 220 0.0 0.0 0.00 0.00 0.00 78 1017.0
20260508192335 15 220 0.0 0.0 0.00 0.00 0.00 79 1016.9
20260508191328 15 220 0.0 0.0 0.00 0.00 0.00 79 1016.7
20260508190326 16 217 0.0 0.0 0.00 0.00 0.00 80 1016.6
20260508185404 16 215 0.0 0.0 0.00 0.00 0.00 78 1016.5
20260508184346 16 210 0.0 0.0 0.00 0.00 0.00 77 1016.5
20260508183402 16 210 0.0 0.0 0.00 0.00 0.00 78 1016.3
20260508182342 16 165 0.0 0.0 0.00 0.00 0.00 78 1016.2
20260508181339 16 140 0.0 0.0 0.00 0.00 0.00 79 1016.1
20260508180331 16 140 0.0 0.0 0.00 0.00 0.00 80 1016.0
20260508175349 17 140 0.0 0.0 0.00 0.00 0.00 78 1016.0
20260508174345 17 140 0.0 0.0 0.00 0.00 0.00 76 1015.8
20260508173343 17 140 0.0 0.0 0.00 0.00 0.00 76 1015.8
20260508172343 17 140 0.0 0.0 0.00 0.00 0.00 76 1015.6
20260508171405 17 140 0.0 0.0 0.00 0.00 0.00 75 1015.6
20260508170339 17 140 0.0 0.0 0.00 0.00 0.00 74 1015.4
20260508165357 18 316 0.0 0.0 0.00 0.00 0.00 73 1015.2
20260508164337 18 314 0.0 1.6 0.00 0.00 0.00 72 1015.2
20260508163328 18 324 0.0 0.0 0.00 0.00 0.00 71 1015.2
20260508162406 18 325 0.0 1.6 0.00 0.00 0.00 70 1015.2
20260508161345 18 296 0.0 3.2 0.00 0.00 0.00 70 1015.1
20260508160339 19 125 0.0 0.0 0.00 0.00 0.00 67 1015.1
20260508155337 19 133 0.0 0.0 0.00 0.00 0.00 68 1015.0
20260508154336 19 125 0.0 1.6 0.00 0.00 0.00 69 1015.0
20260508153332 19 320 0.0 0.0 0.00 0.00 0.00 68 1014.9
20260508152328 19 312 1.6 6.4 0.00 0.00 0.00 65 1014.8
20260508151407 19 315 1.6 6.4 0.00 0.00 0.00 64 1014.9
20260508150331 19 309 1.6 8.0 0.00 0.00 0.00 65 1014.8
20260508145340 19 308 1.6 6.4 0.00 0.00 0.00 66 1014.8
20260508144328 19 314 0.0 6.4 0.00 0.00 0.00 66 1014.9
20260508143346 19 337 1.6 3.2 0.00 0.00 0.00 65 1015.0
20260508142341 20 328 1.6 6.4 0.00 0.00 0.00 65 1015.0